Location: Newark
(43.6583°N, 1.6617°E)
Time: 16:51:29
(UTC+00:00)

Tiros 1 - Pass Details

Date: 01 September 2019
Orbit: 630 x 664 km, 48.4° (Epoch: 22 September)

Event Time Altitude Azimuth Distance (km) Brightness Sun altitude
Rises 01:53:53 0° 293° (WNW) 2,923 - -31.2°
Reaches altitude 10° 01:56:14 10° 290° (WNW) 2,015 - -31.0°
Maximum altitude 02:00:46 56° 212° (SSW) 754 - -30.5°
Drops below altitude 10° 02:05:19 10° 134° (SE) 2,022 - -30.0°
Sets 02:07:41 0° 131° (SE) 2,934 - -29.7°
